Regional Weather Roundup
Issued by NWS Cleveland, OH

Home | Current Version | Previous Version | Graphics & Text | Print | Product List | Glossary On
Versions: 1 2 3 4 5 6 7 8 9 10 11 12 13 14 15 16 17 18 19 20 21 22 23 24 25 26 27 28 29 30 31 32 33 34 35 36 37 38 39 40 41 42 43 44 45 46 47 48 49 50
791
ASUS41 KCLE 251912
RWRCLE
OHIO REGIONAL WEATHER ROUNDUP
NATIONAL WEATHER SERVICE WILMINGTON, OH
300 PM EDT SUN JUN 25 2017

NOTE: "FAIR" INDICATES FEW OR NO CLOUDS BELOW 12,000 FEET WITH NO
SIGNIFICANT WEATHER AND/OR OBSTRUCTIONS TO VISIBILITY.

OHZ001>008-015>018-024>027-034-035-043-044-252000-
   NORTHWEST OHIO

CITY           SKY/WX    TMP DP  RH WIND       PRES   REMARKS
DEFIANCE       PTSUNNY   68  44  42 W8G22     30.08F
FINDLAY        FAIR      73  45  36 W16G25    30.07F
TOLEDO EXPRESS PTSUNNY   70  44  39 W14G22    30.05F
TOLEDO EXEC    PTSUNNY   73  46  38 W20G26    30.06F
LIMA           PTSUNNY   70  46  42 W23       30.10F
$$

OHZ009>014-019>023-028>033-038-089-252000-
   NORTHEAST OHIO

CITY           SKY/WX    TMP DP  RH WIND       PRES   REMARKS
CLE-HOPKINS    FAIR      75  47  36 W18G28    30.05S
CLE-LAKEFRONT  FAIR      70  53  54 W23       30.03R
CUY CO. ARPT   MOSUNNY   73  46  38 NW17G29   30.04S
LORAIN-ELYRIA  FAIR      70  43  37 NW14G26   30.05F
ASHTABULA      FAIR      70  50  49 W26G37    30.02S
AKRON-CANTON   FAIR      76  45  33 W18G33    30.04S
WOOSTER        FAIR      71  47  42 W16G30    30.06S
MANSFIELD      FAIR      72  44  36 SW17G28   30.07S
YOUNGSTOWN     PTSUNNY   73  43  33 SW21G37   30.01F
$$

OHZ042-051>053-060>062-070>072-077>081-252000-
  SOUTHWEST OHIO

CITY           SKY/WX    TMP DP  RH WIND       PRES   REMARKS
CINC-COVINGTON FAIR      75  49  39 W17G26    30.13F
CINC-LUNKEN    PTSUNNY   76  50  40 W17G25    30.12F
HAMILTON       FAIR      78  50  37 W15G26    30.13S
DAYTON         FAIR      74  46  36 W20G28    30.12F
WRIGHT-PAT AFB MOSUNNY   74  46  35 W18G25    30.10F
DAYTON GENERAL FAIR      75  43  31 W17G29    30.11F
WILMINGTON     FAIR      76  52  43 W17G26    30.11F
$$

OHZ036-037-039>041-045>050-054>059-063>069-073>076-082>088-252000-
  CENTRAL AND SOUTHEAST OHIO

CITY           SKY/WX    TMP DP  RH WIND       PRES   REMARKS
COLUMBUS       PTSUNNY   76  46  34 W24G30    30.08S
OSU AIRPORT    FAIR      75  48  38 W25G33    30.09S
BOLTON FIELD   MOSUNNY   75  52  43 W12G22    30.09F
RICKENBACK AFB FAIR      76  49  37 W23G35    30.08F
NEWARK         PTSUNNY   74  45  35 W15G26    30.07F
MARION         FAIR      72  42  34 W13G31    30.09S
LANCASTER      PTSUNNY   74  49  41 W15G30    30.09F
ZANESVILLE     PTSUNNY   77  47  34 W14G28    30.07F
NEW PHILLY     PTSUNNY   76  48  37 W14G23    30.06F
$$




USA.gov is the U.S. government's official web portal to all federal, state and local government web resources and services.